This demonstration page uses our WeatherBlox Daily Observations layout. Learn more.

Left ArrowRight Arrow

Hourly Observations for October 11, 2022

Temp ( °F °C ) Dew Point ( °F °C ) Humidity (%) Winds ( mph kmh ) Pressure ( in mb ) Visibility ( mi km ) Precip ( " mm )
12:51 am 00:51 Clear 59 15 55 12.8 87 87 ESE 3 6 29.92 1013 10 16 0.00 0.00
1:51 am 01:51 Clear 57 13.9 55 12.8 93 93 ENE 5 7 29.93 1013 10 16 0.00 0.00
2:51 am 02:51 Clear 59 15 52 11.1 77 77 VRB 3 6 29.92 1013 10 16 0.00 0.00
3:51 am 03:51 Clear 57 13.9 52 11.1 83 83 VRB 3 6 29.93 1013 10 16 0.00 0.00
4:51 am 04:51 Clear 56 13.3 51 10.6 84 84 SSE 5 7 29.94 1014 10 16 0.00 0.00
5:51 am 05:51 Clear 53 11.7 52 11.1 96 96 Calm 29.96 1015 10 16 0.00 0.00
6:51 am 06:51 Sunny 54 12.2 53 11.7 97 97 Calm 29.98 1015 10 16 0.00 0.00
7:51 am 07:51 Sunny 61 16.1 54 12.2 78 78 Calm 29.99 1016 10 16 0.00 0.00
8:51 am 08:51 Sunny 65 18.3 53 11.7 65 65 Calm 30.00 1016 10 16 0.00 0.00
9:51 am 09:51 Sunny 71 21.7 53 11.7 53 53 ESE 6 9 29.98 1015 10 16 0.00 0.00
10:51 am 10:51 Sunny 73 22.8 53 11.7 50 50 VRB 6 9 29.98 1015 10 16 0.00 0.00
11:51 am 11:51 Sunny 76 24.4 52 11.1 43 43 SSE 6 9 29.95 1014 10 16 0.00 0.00
12:51 pm 12:51 Sunny 79 26.1 51 10.6 38 38 Calm 29.91 1013 10 16 0.00 0.00
1:51 pm 13:51 Sunny 80 26.7 49 9.4 34 34 VRB 5 7 29.88 1012 10 16 0.00 0.00
2:51 pm 14:51 Sunny 81 27.2 47 8.3 30 30 SSW 8 13 29.86 1011 10 16 0.00 0.00
3:51 pm 15:51 Sunny 81 27.2 48 8.9 32 32 VRB 7 11 29.86 1011 10 16 0.00 0.00
4:51 pm 16:51 Sunny 80 26.7 50 10 35 35 SSW 8 13 29.86 1011 10 16 0.00 0.00
5:51 pm 17:51 Clear 77 25 51 10.6 40 40 SW 5 7 29.88 1012 10 16 0.00 0.00
7:51 pm 19:51 Clear 67 19.4 51 10.6 57 57 Calm 29.91 1013 10 16 0.00 0.00
8:51 pm 20:51 Clear 65 18.3 51 10.6 61 61 Calm 29.93 1014 10 16 0.00 0.00
9:51 pm 21:51 Clear 63 17.2 54 12.2 72 72 ESE 5 7 29.94 1014 10 16 0.00 0.00
10:51 pm 22:51 Clear 62 16.7 52 11.1 70 70 E 6 9 29.94 1014 10 16 0.00 0.00
11:51 pm 23:51 Clear 61 16.1 53 11.7 75 75 S 3 6 29.95 1014 10 16 0.00 0.00

Powered by AerisWeather